Weather History for KFRG - February, 2013

Change the Weather History Date:

Wednesday, February 20, 2013

  Actual Average (WUND) Record (WUND)
Temperature  
Mean Temperature 32 °F -  
Max Temperature 37 °F - - (-1)
Min Temperature 25 °F - - (-1)
Degree Days  
Heating Degree Days 34    
Moisture  
Dew Point 13 °F    
Average Humidity 47    
Maximum Humidity 56    
Minimum Humidity 38    
Precipitation  
Precipitation 0.00 in - - ()
Sea Level Pressure  
Sea Level Pressure 29.83 in    
Wind  
Wind Speed 16 mph (WNW)    
Max Wind Speed 22 mph    
Max Gust Speed 34 mph    
Visibility 10 miles    
Events      
Averages and records for this station are not official NWS values.
T = Trace of Precipitation, MM = Missing Value Source: NWS Daily Summary

Daily Weather History Graph

Daily Weather History Graph

Search for Another Location

Airport or City:

Trip Planner

Search our weather history database for the weather conditions in past years. The results will help you decide how hot, cold, wet, or windy it might be!

Date:

Astronomy

Feb. 20, 2013 Rise Set
Actual Time 6:40 AM EST 5:34 PM EST
Civil Twilight 6:12 AM EST 6:02 PM EST
Nautical Twilight 5:40 AM EST 6:34 PM EST
Astronomical Twilight 5:09 AM EST 7:06 PM EST
Moon 12:52 PM EST (2/20) 2:59 AM EST (2/20)
Length of Visible Light 11h 49m
Length of Day
10h 54m
Waxing Gibbous, 76% of the Moon is Illuminated
Feb 20
Waxing Gibbous
Feb 25
Full
Mar 4
Last Quarter
Mar 11
New
Mar 19
First Quarter

Hourly Weather History & Observations

Time (EST) Temp. Windchill Dew Point Humidity Pressure Visibility Wind Dir Wind Speed Gust Speed Precip Events Conditions
12:53 AM 37.9 °F 27.3 °F 21.0 °F 51% 29.71 in 10.0 mi West 21.9 mph 34.5 mph N/A   Clear
1:53 AM 36.0 °F 27.1 °F 19.9 °F 52% 29.71 in 10.0 mi WNW 13.8 mph 25.3 mph N/A   Clear
2:53 AM 35.1 °F 25.5 °F 19.0 °F 52% 29.72 in 10.0 mi West 15.0 mph 23.0 mph N/A   Clear
3:53 AM 34.0 °F 24.2 °F 19.0 °F 54% 29.73 in 10.0 mi WNW 15.0 mph 24.2 mph N/A   Clear
4:53 AM 32.0 °F 24.2 °F 18.0 °F 56% 29.75 in 10.0 mi WNW 9.2 mph 25.3 mph N/A   Clear
5:53 AM 30.9 °F 22.2 °F 15.1 °F 52% 29.78 in 10.0 mi West 10.4 mph - N/A   Partly Cloudy
6:53 AM 30.0 °F 20.0 °F 14.0 °F 51% 29.80 in 10.0 mi WNW 12.7 mph 23.0 mph N/A   Clear
7:53 AM 30.9 °F 19.8 °F 15.1 °F 52% 29.82 in 10.0 mi WNW 16.1 mph 27.6 mph N/A   Clear
8:53 AM 32.0 °F 20.5 °F 15.1 °F 50% 29.83 in 10.0 mi WNW 18.4 mph 28.8 mph N/A   Overcast
9:53 AM 33.1 °F 22.6 °F 12.9 °F 43% 29.83 in 10.0 mi WNW 16.1 mph 24.2 mph N/A   Partly Cloudy
10:53 AM 32.0 °F 22.1 °F 10.0 °F 40% 29.83 in 10.0 mi NW 13.8 mph 26.5 mph N/A   Partly Cloudy
11:53 AM 32.0 °F 22.1 °F 10.0 °F 40% 29.82 in 10.0 mi WNW 13.8 mph 24.2 mph N/A   Scattered Clouds
12:53 PM 33.1 °F 21.9 °F 10.0 °F 38% 29.82 in 10.0 mi West 18.4 mph 28.8 mph N/A   Mostly Cloudy
2:53 PM 30.9 °F 18.4 °F 10.0 °F 42% 29.83 in 10.0 mi WNW 20.7 mph 32.2 mph N/A   Scattered Clouds
3:53 PM 32.0 °F 19.5 °F 10.0 °F 40% 29.84 in 10.0 mi West 21.9 mph 32.2 mph N/A   Overcast
4:53 PM 30.0 °F 16.9 °F 9.0 °F 41% 29.86 in 10.0 mi WNW 21.9 mph 28.8 mph N/A   Mostly Cloudy
5:53 PM 30.0 °F 19.5 °F 9.0 °F 41% 29.88 in 10.0 mi WNW 13.8 mph 23.0 mph N/A   Mostly Cloudy
6:53 PM 28.9 °F 19.2 °F 10.9 °F 47% 29.91 in 10.0 mi WNW 11.5 mph 18.4 mph N/A   Overcast
7:53 PM 28.0 °F 14.9 °F 9.0 °F 45% 29.92 in 10.0 mi NW 19.6 mph 34.5 mph N/A   Partly Cloudy
8:53 PM 27.0 °F 13.9 °F 8.1 °F 45% 29.94 in 10.0 mi WNW 18.4 mph 26.5 mph N/A   Clear
9:53 PM 26.1 °F 14.5 °F 8.1 °F 47% 29.93 in 10.0 mi WNW 13.8 mph 27.6 mph N/A   Clear
11:53 PM 25.0 °F 14.2 °F 8.1 °F 49% 29.96 in 10.0 mi NW 11.5 mph 21.9 mph N/A   Clear